ACA1121 CYOW-CYXU

Flight info

Callsign ACA1121
Flight time N/A
Altitude 38000
Route TUKIR Q806 ILUSI DCT YYZ DCT LETOR
Aircraft A20N/M-SDE2E3FGHIRWXY/LB1

Departure

Time 2026-05-03 22:25
Airport Ottawa Macdonald-Cartier International Airport (CYOW)

Arrival

Time N/A
Airport London International Airport (CYXU)
Time Latitude Longitude Altitude Speed Heading
2026-05-03 22:13 45.32023 -75.66501 391 ft 0 kts 353°
2026-05-03 22:20 45.32004 -75.66503 390 ft 5 kts 13°
2026-05-03 22:20 45.31961 -75.66526 389 ft 0 kts 27°
2026-05-03 22:21 45.31976 -75.66499 389 ft 9 kts 58°
2026-05-03 22:21 45.31968 -75.66396 388 ft 14 kts 104°
2026-05-03 22:22 45.31987 -75.66236 386 ft 19 kts 78°
2026-05-03 22:22 45.32045 -75.66044 384 ft 23 kts 57°
2026-05-03 22:22 45.32135 -75.65839 383 ft 26 kts 58°
2026-05-03 22:22 45.32233 -75.65611 384 ft 28 kts 59°
2026-05-03 22:23 45.32334 -75.65410 385 ft 9 kts 62°
2026-05-03 22:23 45.32361 -75.65329 385 ft 12 kts 65°
2026-05-03 22:23 45.32334 -75.65224 383 ft 11 kts 172°
2026-05-03 22:23 45.32264 -75.65258 385 ft 11 kts 201°
2026-05-03 22:24 45.32184 -75.65302 384 ft 15 kts 196°
2026-05-03 22:24 45.32130 -75.65353 383 ft 0 kts 238°
2026-05-03 22:24 45.32089 -75.65444 383 ft 41 kts 237°
2026-05-03 22:24 45.31800 -75.66087 384 ft 112 kts 237°
2026-05-03 22:25 45.31286 -75.67209 645 ft 144 kts 237°
2026-05-03 22:25 45.30746 -75.68438 1291 ft 148 kts 240°
2026-05-03 22:25 45.30276 -75.69637 2091 ft 139 kts 257°
2026-05-03 22:25 45.30113 -75.71057 2543 ft 155 kts 265°
2026-05-03 22:26 45.30019 -75.72673 2921 ft 173 kts 266°
2026-05-03 22:26 45.29911 -75.74462 3194 ft 192 kts 264°
2026-05-03 22:26 45.29764 -75.76428 3372 ft 209 kts 263°
2026-05-03 22:26 45.29577 -75.78553 3560 ft 223 kts 263°
2026-05-03 22:27 45.29370 -75.80777 3902 ft 229 kts 262°
2026-05-03 22:27 45.29147 -75.83102 3829 ft 245 kts 263°
2026-05-03 22:27 45.28917 -75.85507 3789 ft 245 kts 262°
2026-05-03 22:27 45.28686 -75.87905 3792 ft 244 kts 263°
2026-05-03 22:28 45.28534 -75.89487 3802 ft 245 kts 263°
2026-05-03 22:28 45.28306 -75.91875 3794 ft 246 kts 262°
2026-05-03 22:28 45.28075 -75.94280 3799 ft 244 kts 263°
2026-05-03 22:28 45.27846 -75.96673 3797 ft 243 kts 262°
2026-05-03 22:29 45.27542 -75.99837 3799 ft 245 kts 262°
2026-05-03 22:29 45.27311 -76.02222 3796 ft 242 kts 262°
2026-05-03 22:29 45.27156 -76.03825 3799 ft 243 kts 262°
2026-05-03 22:29 45.26922 -76.06247 4007 ft 251 kts 262°
2026-05-03 22:30 45.26689 -76.08634 4807 ft 245 kts 262°
2026-05-03 22:30 45.26454 -76.11044 5428 ft 247 kts 262°
2026-05-03 22:30 45.26217 -76.13470 6052 ft 249 kts 262°
2026-05-03 22:30 45.25978 -76.15918 6617 ft 251 kts 262°
2026-05-03 22:31 45.25737 -76.18380 7195 ft 253 kts 262°
2026-05-03 22:31 45.25493 -76.20858 7771 ft 254 kts 263°
2026-05-03 22:31 45.25154 -76.23313 8354 ft 256 kts 255°
2026-05-03 22:31 45.24507 -76.25680 8887 ft 259 kts 245°
2026-05-03 22:32 45.23623 -76.27921 9412 ft 262 kts 243°
2026-05-03 22:32 45.22725 -76.30179 9899 ft 264 kts 243°
2026-05-03 22:32 45.21809 -76.32508 10066 ft 277 kts 244°
2026-05-03 22:32 45.20856 -76.34942 10168 ft 288 kts 244°
2026-05-03 22:33 45.19868 -76.37461 10263 ft 296 kts 244°
2026-05-03 22:33 45.18869 -76.39999 10458 ft 300 kts 244°
2026-05-03 22:33 45.17837 -76.42615 10708 ft 301 kts 244°
2026-05-03 22:33 45.16826 -76.45174 10946 ft 302 kts 244°
2026-05-03 22:34 45.15797 -76.47773 11157 ft 303 kts 245°
2026-05-03 22:34 45.14762 -76.50387 11365 ft 305 kts 245°
2026-05-03 22:34 45.13724 -76.53010 11587 ft 306 kts 245°
2026-05-03 22:34 45.12682 -76.55645 11796 ft 307 kts 245°
2026-05-03 22:35 45.11638 -76.58284 12013 ft 308 kts 245°
2026-05-03 22:35 45.10588 -76.60934 12191 ft 309 kts 246°
2026-05-03 22:35 45.09533 -76.63592 12410 ft 310 kts 246°
2026-05-03 22:35 45.08476 -76.66254 12598 ft 311 kts 246°
2026-05-03 22:36 45.07414 -76.68926 12768 ft 312 kts 246°
2026-05-03 22:36 45.06350 -76.71598 12970 ft 312 kts 246°
2026-05-03 22:36 45.05296 -76.74243 13145 ft 313 kts 246°
2026-05-03 22:36 45.04223 -76.76935 13290 ft 315 kts 246°
2026-05-03 22:37 45.03148 -76.79628 13468 ft 315 kts 246°
2026-05-03 22:37 45.02068 -76.82331 13603 ft 316 kts 247°
2026-05-03 22:37 45.00985 -76.85042 13733 ft 317 kts 247°
2026-05-03 22:37 44.99900 -76.87752 13871 ft 318 kts 246°
2026-05-03 22:38 44.98810 -76.90471 14008 ft 318 kts 246°
2026-05-03 22:38 44.97728 -76.93177 14213 ft 315 kts 246°
2026-05-03 22:38 44.96647 -76.95872 14312 ft 316 kts 246°
2026-05-03 22:38 44.95562 -76.98576 14427 ft 317 kts 246°
2026-05-03 22:39 44.94472 -77.01285 14560 ft 317 kts 246°
2026-05-03 22:39 44.93381 -77.03996 14636 ft 318 kts 246°
2026-05-03 22:39 44.92288 -77.06710 14764 ft 318 kts 246°
2026-05-03 22:39 44.91206 -77.09393 14864 ft 319 kts 246°
2026-05-03 22:40 44.90111 -77.12106 14945 ft 319 kts 246°
2026-05-03 22:40 44.89010 -77.14831 15055 ft 319 kts 246°
2026-05-03 22:40 44.87909 -77.17553 15149 ft 320 kts 246°
2026-05-03 22:40 44.86809 -77.20271 15254 ft 320 kts 246°
2026-05-03 22:41 44.85705 -77.22997 15307 ft 321 kts 246°
2026-05-03 22:41 44.84596 -77.25734 15354 ft 322 kts 246°
2026-05-03 22:41 44.83485 -77.28473 15455 ft 322 kts 246°
2026-05-03 22:41 44.82371 -77.31212 15553 ft 322 kts 246°
2026-05-03 22:42 44.81258 -77.33948 15625 ft 322 kts 246°
2026-05-03 22:42 44.80140 -77.36692 15686 ft 323 kts 246°
2026-05-03 22:42 44.79024 -77.39433 15739 ft 324 kts 245°
2026-05-03 22:42 44.77899 -77.42196 15790 ft 325 kts 245°
2026-05-03 22:43 44.76772 -77.44956 15857 ft 326 kts 245°
2026-05-03 22:43 44.75658 -77.47680 15925 ft 326 kts 245°